TIME,DELAY(SENSOR),PRES,OXYGEN,RAWTEMP,T(OPTODE),TCPHASE,FLUOR,BETA(BETA700),BETA(BETA412),BETA(BETA440),CDOM,C(CSC),ED(ED412.20),ED(ED444.00),ED(ED489.60),ED(ED554.30),LU(LU412.10),LU(LU443.90),LU(LU489.70),LU(LU554.70),COMP,TILTX,TILTY,CHECK
1357873289,5809,891.2199707031250000,36.8814506530761700,561.1077880859375000,4.4515571594238280,55.9972305297851560,55,98,98,77,82,15551,0,0,0,0,2147124480,2147770258,2147570029,2147573220,2164,2,13,48569
1357876886,5810,957.2500000000000000,42.3060493469238300,567.4548950195312000,4.2546229362487790,55.2493400573730500,55,99,100,77,82,15548,0,0,0,0,2147122834,2147771840,2147567680,2147571190,712,2,13,1248
1357880486,5809,976.2700195312500000,43.3544998168945300,568.3629150390625000,4.2264251708984375,55.1017112731933600,55,100,99,83,81,15547,0,0,0,0,2147124361,2147769380,2147575451,2147571776,306,3,13,1949
1357884086,5809,980.9600219726562000,43.0769805908203100,569.6218872070312000,4.1873111724853520,55.1579513549804700,55,98,100,77,81,15548,0,0,0,0,2147119542,2147772059,2147570889,2147571465,4,3,13,63463
1357887686,5812,989.9699707031250000,42.7092895507812500,569.5440063476562000,4.1897301673889160,55.2092094421386700,54,99,100,78,82,15549,0,0,0,0,2147125074,2147773092,2147578587,2147571337,3361,3,13,1239
1357891286,5811,983.8499755859375000,42.6546211242675800,570.0114135742188000,4.1752052307128910,55.2252883911132800,55,98,99,78,81,15549,0,0,0,0,2147125275,2147773156,2147572662,2147571273,302,3,13,41905
1357894886,5808,991.7899780273438000,42.8266792297363300,570.2396240234375000,4.1681141853332520,55.1987609863281250,55,98,101,79,81,15549,0,0,0,0,2147124653,2147772251,2147573010,2147573558,126,2,13,6847
1357898486,5808,991.1400146484375000,42.3415603637695300,569.5413208007812000,4.1898140907287600,55.2625007629394500,54,98,100,78,81,15549,0,0,0,0,2147127021,2147774793,2147573001,2147569362,330,3,13,41232
1357902086,5808,993.0300292968750000,42.3832893371582000,569.7139282226562000,4.1844501495361330,55.2626800537109400,55,100,99,77,81,15544,0,0,0,0,2147125531,2147774957,2147575460,2147568438,3262,3,13,4636
1357905686,5807,986.2800292968750000,42.4331703186035160,570.2255249023438000,4.1685519218444820,55.2579307556152340,55,98,100,78,81,15534,0,0,0,0,2147126061,2147776009,2147573065,2147569865,3555,2,13,6200
1357909286,5810,988.1799926757812000,42.7649192810058600,571.4017944335938000,4.1319918632507320,55.2212181091308600,55,98,100,78,83,15523,0,0,0,0,2147120713,2147769856,2147570825,2147570505,3217,3,13,24374
1357912886,5810,989.1099853515625000,42.8847389221191400,571.6201171875000000,4.1252040863037110,55.2058410644531250,55,98,100,78,82,15533,0,0,0,0,2147121609,2147772068,2147572489,2147569060,3537,2,13,29196
1357916486,5813,984.8099975585938000,43.1960105895996100,572.0504150390625000,4.1118278503417970,55.1702919006347660,55,99,100,78,82,15533,0,0,0,0,2147123657,2147773814,2147569700,2147570605,3422,2,13,56511
1357920086,5810,983.7800292968750000,44.0168190002441400,573.0825195312500000,4.0797290802001950,55.0638198852539060,54,99,100,78,81,15517,0,0,0,0,2147123300,2147770340,2147572169,2147568219,40,3,13,62831
1357923686,5809,988.9299926757812000,43.7587013244628900,572.4077758789062000,4.1007142066955570,55.0921096801757800,55,98,100,77,83,15526,0,0,0,0,2147125558,2147768173,2147568603,2147569380,82,3,13,20426
1357927286,5809,989.7299804687500000,43.3827209472656250,571.8425292968750000,4.1182918548583980,55.1410408020019500,55,98,101,80,82,15524,0,0,0,0,2147124105,2147774930,2147569444,2147567433,52,3,13,45768
1357930886,5807,989.2199707031250000,43.3180084228515600,571.8598022460938000,4.1177520751953125,55.1513710021972660,54,99,101,78,83,15523,0,0,0,0,2147126491,2147772726,2147575040,2147569179,203,2,13,20843
1357934486,5810,997.5999755859375000,43.2066383361816400,571.6052856445312000,4.1256661415100100,55.1597099304199200,55,101,99,79,83,15523,0,0,0,0,2147122697,2147773668,2147570578,2147573686,42,3,13,36263
1357938086,5811,995.1099853515625000,42.9598808288574200,571.5900878906250000,4.1261367797851560,55.1984596252441400,55,98,100,77,82,15522,0,0,0,0,2147122806,2147772992,2147569499,2147569252,69,3,13,15277
1357941686,5810,994.3800048828125000,42.7029685974121100,571.6437988281250000,4.1244678497314450,55.2371292114257800,55,100,101,79,81,15520,0,0,0,0,2147123456,2147774500,2147572918,2147573696,242,3,13,41671
1357945286,5808,999.3200073242188000,42.1073913574218750,570.4260864257812000,4.1623191833496090,55.3057289123535160,54,99,100,80,81,15520,0,0,0,0,2147123273,2147772242,2147571209,2147571684,378,3,13,9543
1357948886,5808,1000.9199829101562000,42.1111106872558600,570.1036987304688000,4.1723380088806150,55.3027610778808600,55,100,101,77,83,15515,0,0,0,0,2147126043,2147770688,2147577316,2147571483,233,3,13,44386
1357952486,5811,992.7500000000000000,42.9529800415039060,571.2606811523438000,4.1363749504089355,55.1922988891601560,55,99,102,79,83,15522,0,0,0,0,2147125174,2147772644,2147572288,2147570057,34,3,13,5177
1357956086,5809,999.3800048828125000,43.4770393371582000,571.8975830078125000,4.1165747642517090,55.1279792785644500,56,98,100,78,82,15519,0,0,0,0,2147126848,2147770752,2147573220,2147574363,2997,3,13,56302
1357959686,5809,992.7000122070312000,43.4809112548828100,572.1483764648438000,4.1087779998779300,55.1300697326660160,55,99,99,79,82,15519,0,0,0,0,2147121993,2147774948,2147573613,2147572132,3426,2,13,35687
1357963286,5810,988.2700195312500000,43.3938407897949200,572.2670288085938000,4.1050910949707030,55.1396408081054700,55,98,100,78,81,15522,0,0,0,0,2147125403,2147770733,2147573193,2147567872,351,2,13,59679
1357966886,5810,995.5800170898438000,43.4273490905761700,572.2188720703125000,4.1065878868103030,55.1394004821777340,55,99,98,78,82,15520,0,0,0,0,2147125531,2147770358,2147575689,2147570194,3557,2,13,16476
1357970486,5809,995.5900268554688000,43.3062705993652340,572.2517700195312000,4.1055641174316410,55.1502418518066400,55,98,100,77,83,15517,0,0,0,0,2147124361,2147772763,2147571858,2147570925,114,2,13,15311
1357974086,5809,994.2999877929688000,43.0514793395996100,571.9791870117188000,4.1140398979187010,55.1895103454589840,55,99,99,78,81,15516,0,0,0,0,2147127853,2147771291,2147568777,2147574409,214,2,13,50507
1357977686,5812,997.9099731445312000,43.2628288269043000,571.4118041992188000,4.1316800117492680,55.1521415710449200,55,99,100,78,82,15509,0,0,0,0,2147122980,2147768173,2147572635,2147569398,3440,2,13,42692
1357981286,5809,999.4600219726562000,43.0385704040527340,571.0645751953125000,4.1424732208251950,55.1826210021972660,54,98,100,78,81,15508,0,0,0,0,2147125632,2147770715,2147574299,2147568566,3593,2,13,40202
1357984886,5808,996.5200195312500000,42.9217796325683600,571.5895996093750000,4.1261539459228520,55.2056884765625000,55,99,100,78,83,15504,0,0,0,0,2147124608,2147769051,2147572891,2147571126,241,2,13,21626
1357988486,5807,993.3499755859375000,43.0973014831543000,572.5546264648438000,4.0961480140686035,55.1885414123535160,55,99,99,78,81,15509,0,0,0,0,2147125266,2147773403,2147574427,2147568822,404,3,13,21330
1357992086,5809,996.9799804687500000,43.4368705749511700,572.3253784179688000,4.1032748222351070,55.1378707885742200,55,99,100,77,83,15512,0,0,0,0,2147124690,2147774610,2147573248,2147569051,417,3,13,43483
1357995686,5811,993.7399902343750000,43.1388206481933600,572.6384277343750000,4.0935401916503910,55.1793899536132800,55,98,101,78,80,15510,0,0,0,0,2147121472,2147771547,2147569334,2147568530,298,2,13,29104
1357999286,5812,1000.0999755859375000,43.8051795959472660,571.9337768554688000,4.1154499053955080,55.0806503295898440,54,99,102,78,82,15510,0,0,0,0,2147123602,2147772178,2147570002,2147568594,89,3,13,31970
1358002886,5809,997.6799926757812000,42.6310806274414060,572.0789184570312000,4.1109390258789060,55.2514114379882800,55,99,100,77,82,15508,0,0,0,0,2147126226,2147770998,2147571584,2147567076,197,2,13,60763
1358006486,5812,1001.5900268554688000,42.2904891967773440,571.5324096679688000,4.1279320716857910,55.2923812866210940,55,99,101,77,81,15506,0,0,0,0,2147120128,2147772150,2147572836,2147570176,56,2,13,45622
1358010086,5808,998.1599731445312000,42.4072990417480500,571.6749877929688000,4.1234989166259770,55.2759208679199200,55,98,100,77,81,15505,0,0,0,0,2147122651,2147772772,2147572544,2147568612,3593,2,13,55804
1358013686,5809,988.2999877929688000,43.5814285278320300,572.6920166015625000,4.0918731689453125,55.1224403381347660,55,98,101,78,81,15508,0,0,0,0,2147124077,2147768539,2147573942,2147567021,135,2,13,2652
1358017286,5813,1000.1500244140625000,43.8726196289062500,572.3187866210938000,4.1034808158874510,55.0751304626464840,55,98,99,78,82,15497,0,0,0,0,2147124443,2147769572,2147571803,2147571346,28,3,13,13563
1358018157,5811,1002.7700195312500000,43.4727401733398440,571.7896728515625000,4.1199321746826170,55.1218681335449200,54,98,100,78,83,15493,0,0,0,0,2147123099,2147772306,2147571264,2147568987,98,3,13,51456
